Weather observations for the past three days for
Reading, Reading Regional Airport
Imperial (Metric)
Date Time (edt) Wind (mph) Vis. (mi.) Weather Sky Cond. Temperature (ºF) Relative Humidity Wind Chill (°F) Heat Index (°F) Pressure Precipitation (in)
Air Dwpt 6 hour altimeter (in) sea level (mb) 1 hr 3 hr 6 hr
Max. Min.
24 20:54 NW 7 10.00 Fair CLR 77 48 36% 78 29.84 1010.6
24 19:54 NW 10 10.00 Fair CLR 80.1 46.9 84.9 80.1 31% 79 29.81 1009.7
24 18:54 N 13 G 22 10.00 A Few Clouds FEW080 82 46.9 29% 80 29.8 1009.5
24 17:54 NW 22 G 31 10.00 Fair and Breezy CLR 82 46 28% 80 29.8 1009.3
24 16:54 N 21 G 32 10.00 Partly Cloudy and Breezy SCT090 84 46.9 27% 82 29.78 1008.5
24 15:54 NW 22 G 33 10.00 Mostly Cloudy and Breezy BKN080 BKN090 84.9 48 28% 83 29.78 1008.4
24 14:54 N 20 G 41 10.00 Mostly Cloudy BKN075 81 48 32% 80 29.78 1008.4
24 13:54 NW 26 G 36 10.00 Mostly Cloudy and Windy SCT070 BKN080 82.9 50 84 73.9 32% 81 29.77 1008.3
24 12:54 NW 25 G 39 10.00 A Few Clouds and Breezy FEW060 82 51.1 34% 81 29.76 1007.9
24 11:54 NW 26 G 33 10.00 Partly Cloudy and Windy SCT049 80.1 52 38% 80 29.75 1007.4
24 10:54 NW 18 G 29 10.00 Mostly Cloudy SCT047 BKN055 79 55 44% 80 29.73 1007.0
24 09:54 NW 23 G 32 10.00 Mostly Cloudy and Breezy BKN033 BKN045 0 0 0% 29.74 0.0
24 08:54 NW 22 G 31 10.00 Mostly Cloudy and Breezy BKN038 BKN045 77 55.9 48% 79 29.72 1006.5
24 07:54 NW 15 10.00 Light Rain SCT036 75 59 81 73.9 58% 77 29.7 1005.9
24 06:54 NW 13 G 25 10.00 Light Rain CLR 73.9 60.1 62% 29.68 1005.2
24 05:54 NW 10 10.00 Fair CLR 73.9 62.1 67% 29.66 1004.4
24 04:54 NW 14 10.00 Fair CLR 75.9 62.1 62% 78 29.62 1003.2
24 03:54 NW 9 G 21 10.00 Mostly Cloudy BKN095 80.1 64 58% 82 29.63 1003.3
24 02:54 W 6 10.00 Overcast BKN075 OVC110 81 66 61% 83 29.61 1002.9
24 01:54 W 8 10.00 Mostly Cloudy BKN100 81 66.9 89.1 79 62% 83 29.63 1003.4
24 00:54 SW 7 10.00 Mostly Cloudy SCT070 BKN100 80.1 68 67% 83 29.62 1003.0
23 23:54 SW 10 10.00 Light Rain FEW110 82.9 66.9 59% 86 29.61 1002.6
23 22:54 W 12 G 20 10.00 Mostly Cloudy FEW065 SCT075 BKN100 86 64 48% 87 29.59 1002.1
23 21:54 SW 14 10.00 Fair CLR 86 63 46% 87 29.59 1002.0
23 20:54 S 6 10.00 Mostly Cloudy FEW065 BKN090 BKN100 86 64 48% 87 29.6 1002.5
23 19:54 SW 10 G 20 10.00 Overcast SCT075 OVC095 89.1 64 97 87.1 43% 90 29.61 1002.7
23 18:54 W 8 10.00 Mostly Cloudy FEW042 FEW065 BKN110 88 66 48% 90 29.62 1002.9
23 17:54 W 7 10.00 Overcast OVC080 91.9 66.9 44% 95 29.62 1002.9
23 16:54 SW 16 G 24 10.00 Fair CLR 93 66.9 42% 97 29.61 1002.9
23 15:54 SW 17 G 29 10.00 Light Rain CLR 93.9 68 43% 98 29.64 1003.6
23 14:54 SW 17 G 29 10.00 Light Rain SCT060 93 66.9 42% 97 29.66 1004.6
23 13:54 SW 16 G 24 10.00 Light Rain FEW060 97 66.9 98.1 82.9 37% 101 29.67 1004.8
23 12:54 SW 14 G 24 10.00 Light Rain FEW060 93.9 68 43% 98 29.7 1005.7
23 11:54 SW 7 10.00 Fair CLR 91.9 69.1 47% 97 29.72 1006.6
23 10:54 SW 6 10.00 Fair CLR 89.1 69.1 52% 94 29.74 1007.2
23 09:54 W 8 9.00 Fair CLR 87.1 69.1 55% 91 29.76 1007.7
23 08:54 SW 7 10.00 A Few Clouds FEW100 84 70 63% 88 29.78 1008.6
23 07:54 S 7 10.00 Mostly Cloudy BKN100 82.9 70 82.9 77 65% 87 29.79 1008.7
23 06:54 Calm 9.00 Mostly Cloudy BKN100 BKN120 80.1 71.1 74% 84 29.79 1008.9
23 05:54 Calm 8.00 Overcast FEW075 BKN100 OVC110 79 71.1 77% 82 29.8 1009.1
23 04:54 S 6 9.00 Partly Cloudy FEW080 SCT095 80.1 71.1 74% 84 29.81 1009.3
23 03:54 Calm 7.00 A Few Clouds FEW120 78.1 73 85% 81 29.82 1010.0
23 02:54 Calm 6.00 Mostly Cloudy with Haze BKN100 78.1 73 85% 81 29.84 1010.7
23 01:54 NW 5 8.00 Partly Cloudy SCT120 78.1 72 84.9 78.1 82% 80 29.87 1011.5
23 00:54 N 5 8.00 Mostly Cloudy SCT080 BKN100 79 73 82% 82 29.87 1011.7
22 23:54 Calm 7.00 Partly Cloudy SCT080 SCT095 80.1 73 79% 84 29.88 1011.8
22 22:54 N 7 7.00 Fair CLR 80.1 73.9 82% 85 29.89 1012.2
22 21:54 Calm 5.00 Fog/Mist SCT120 80.1 75.9 87% 85 29.9 1012.5
22 20:54 Calm 6.00 Fog/Mist CLR 80.1 77 90% 86 29.88 1012.1
22 19:54 Calm 2.00 Light Rain FEW039 SCT049 BKN070 84.9 75.9 100.9 81 75% 94 29.89 1012.3 0.15 0.15
22 18:54 S 10 9.00 Fair CLR 95 70 44% 101 29.87 1011.6
22 17:54 SW 5 10.00 Fair CLR 100 64 31% 103 29.87 1011.5
22 16:54 NW 9 10.00 Fair CLR 100 64 31% 103 29.89 1012.1
22 15:54 W 10 10.00 Mostly Cloudy BKN080 100 64.9 32% 103 29.91 1012.8
22 14:54 W 10 G 18 10.00 A Few Clouds FEW070 100 64.9 32% 103 29.93 1013.4
22 13:54 S 9 9.00 A Few Clouds FEW070 99 66.9 99 80.1 35% 104 29.95 1014.3
22 12:54 W 9 9.00 Fair CLR 97 66.9 37% 101 29.98 1015.2
22 11:54 W 9 10.00 Fair CLR 95 69.1 43% 101 30 1016.2
22 10:54 Calm 9.00 Fair CLR 91 71.1 52% 98 30.02 1016.6
22 09:54 Vrbl 3 9.00 Fair CLR 88 71.1 57% 94 30.04 1017.3
22 08:54 W 3 10.00 Fair CLR 84 70 63% 88 30.05 1017.7
22 07:54 SW 5 10.00 Fair CLR 80.1 70 82.9 75.9 71% 83 30.05 1017.8
22 06:54 S 3 10.00 Fair CLR 79 69.1 72% 82 30.06 1017.9
22 05:54 Calm 10.00 Fair CLR 77 68 74% 79 30.06 1018.0
22 04:54 Calm 10.00 Fair CLR 77 66.9 71% 79 30.06 1017.9
22 03:54 Calm 10.00 Fair CLR 79 66.9 67% 81 30.06 1017.9
22 02:54 Calm 10.00 A Few Clouds FEW060 79 66.9 67% 81 30.07 1018.2
22 01:54 S 3 10.00 Fair CLR 82.9 66 91.9 80.1 57% 85 30.08 1018.6
22 00:54 S 6 10.00 Overcast OVC060 82 66.9 60% 85 30.09 1019.1
21 23:54 N 5 10.00 Mostly Cloudy BKN060 BKN080 82.9 66.9 59% 86 30.1 1019.4
21 22:54 S 6 10.00 Fair CLR 84 66.9 57% 87 30.09 1019.0
21 21:54 S 9 10.00 Fair CLR 86 68 55% 89 30.09 1018.9
Date Time (edt) Wind (mph) Vis. (mi.) Weather Sky Cond. Air Dwpt Max. Min. Relative Humidity Wind Chill (°F) Heat Index (°F) altimeter (in) sea level (mb) 1 hr 3 hr 6 hr
6 hour
Temperature (ºF) Pressure Precipitation (in)